Вернуться в каталог

STARLINK-37277

АктивенСвязьSSO
NORAD 68751·PAYLOAD·🇺🇸 United States

Запущен Apr 15, 2026 с Vandenberg Space Force Base

Loading…

Ближайшие Пролёты (ближайшие 24 часа)

TLE

СвежийSource: CelesTrak SupGP

Эпоха: Sep 14, 2026, 23:28 UTC

1 68751C 26082Z   26257.97826389  .00080527  00000+0  25001-2 0  2577
2 68751  97.2845 120.2379 0001970  94.8154 178.4125 15.33392410    16

Отслеживайте STARLINK-37277 в реальном времени с AllMySat

Download on the App Store